Location: DARK SKY Beskydy - Park tmavé oblohy, www.darkskybeskydy.cz
(49.4926°N, 18.5016°E)
Time: 00:35:48
(UTC+01:00)

Tiangong - Pass Details

Date: 05 December 2022
Orbit: 383 x 386 km, 41.5° (Epoch: 28 January)

Event Time Altitude Azimuth Distance (km) Brightness Sun altitude
Rises 17:59:39 0° 249° (WSW) 2,256 3.3 -20.5°
Reaches altitude 10° 18:02:05 10° 231° (SW) 1,405 1.6 -20.9°
Maximum altitude 18:04:26 19° 183° (S) 988 0.0 -21.3°
Enters shadow 18:04:28 19° 182° (S) 988 0.0 -21.3°
